KI5R Weather Reports


Display with metric or nautical units.
time (UTC)temp
F
wind
direction
speed
MPH
gust
MPH
rain 1hr
in
rain 24hr
in
rain mn
in
humidity
%
barometer
mb
20210921081518 82 180 2.0 4.0 0.00 0.00 0.00 71 1011.0
20210921081020 82 178 1.0 4.0 0.00 0.00 0.00 71 1011.0
20210921074010 82 178 1.0 7.0 0.00 0.00 0.00 70 1010.8
20210921073534 82 181 1.0 4.0 0.00 0.00 0.00 70 1010.8
20210921073148 82 180 1.0 4.0 0.00 0.00 0.00 70 1010.8
20210921070508 82 193 0.0 4.0 0.00 0.00 0.00 69 1010.6
20210921070040 82 196 2.0 6.0 0.00 0.00 0.00 69 1010.5
20210921065522 82 198 3.0 6.0 0.00 0.00 0.00 69 1010.5
20210921063503 83 206 4.0 7.0 0.00 0.00 0.00 68 1010.4
20210921063057 83 179 3.0 7.0 0.00 0.00 0.00 67 1010.4
20210921062607 83 161 3.0 10.0 0.00 0.00 0.00 67 1010.3
20210921060001 83 185 2.0 9.0 0.00 0.00 0.00 65 1010.5
20210921055511 84 180 3.0 10.0 0.00 0.00 0.00 65 1010.4
20210921055020 84 174 3.0 10.0 0.00 0.00 0.00 65 1010.4
20210921052524 85 164 3.0 11.0 0.00 0.00 0.00 63 1010.3
20210921052021 85 199 4.0 11.0 0.00 0.00 0.00 63 1010.2
20210921045502 85 184 4.0 12.0 0.00 0.00 0.00 61 1010.0
20210921045044 85 190 4.0 10.0 0.00 0.00 0.00 61 1010.0
20210921044537 86 184 5.0 10.0 0.00 0.00 0.00 61 1009.9
20210921044027 86 191 3.0 10.0 0.00 0.00 0.00 61 1010.0
20210921043600 86 184 4.0 7.0 0.00 0.00 0.00 60 1009.9
20210921035002 87 167 4.0 9.0 0.00 0.00 0.00 57 1009.6
20210921034533 87 131 4.0 9.0 0.00 0.00 0.00 56 1009.6
20210921032040 88 147 3.0 7.0 0.00 0.00 0.00 54 1009.7
20210921031559 88 188 4.0 7.0 0.00 0.00 0.00 54 1009.6
20210921024535 89 180 2.0 7.0 0.00 0.00 0.00 53 1009.3
20210921022630 89 166 2.0 6.0 0.00 0.00 0.00 51 1009.2
20210921021536 90 178 3.0 8.0 0.00 0.00 0.00 49 1009.0
20210921021027 90 153 3.0 7.0 0.00 0.00 0.00 49 1008.9
20210921014556 90 180 2.0 7.0 0.00 0.00 0.00 47 1008.6
20210921014025 91 148 2.0 7.0 0.00 0.00 0.00 46 1008.4
20210921011053 92 167 1.0 8.0 0.00 0.00 0.00 44 1008.1
20210921010530 92 156 2.0 6.0 0.00 0.00 0.00 44 1007.9
20210921005510 92 172 4.0 8.0 0.00 0.00 0.00 44 1007.9
20210921004046 92 200 3.0 8.0 0.00 0.00 0.00 43 1007.7
20210921003559 93 183 3.0 7.0 0.00 0.00 0.00 44 1007.7
20210921002023 93 169 3.0 7.0 0.00 0.00 0.00 43 1007.5
20210921001036 93 186 3.0 9.0 0.00 0.00 0.00 42 1007.5
20210920234609 94 186 2.0 6.0 0.00 0.00 0.00 42 1007.1
20210920231039 95 168 3.0 11.0 0.00 0.00 0.00 41 1007.1
20210920224601 96 201 2.0 8.0 0.00 0.00 0.00 40 1007.3
20210920223020 96 175 4.0 8.0 0.00 0.00 0.00 39 1007.3
20210920222034 96 186 1.0 5.0 0.00 0.00 0.00 41 1007.2
20210920221042 96 167 2.0 7.0 0.00 0.00 0.00 40 1007.1
20210920214553 96 178 2.0 5.0 0.00 0.00 0.00 39 1007.3
20210920213056 96 175 3.0 8.0 0.00 0.00 0.00 39 1007.5
20210920210516 97 182 3.0 11.0 0.00 0.00 0.00 39 1007.6
20210920205554 97 159 4.0 7.0 0.00 0.00 0.00 41 1007.6
20210920204628 97 189 5.0 9.0 0.00 0.00 0.00 39 1007.8
20210920203109 98 161 2.0 8.0 0.00 0.00 0.00 41 1007.8
20210920200549 99 211 1.0 8.0 0.00 0.00 0.00 41 1008.1
20210920195033 101 193 1.0 10.0 0.00 0.00 0.00 40 1008.2
20210920193528 102 194 2.0 8.0 0.00 0.00 0.00 39 1008.3
20210920192557 102 209 1.0 4.0 0.00 0.00 0.00 41 1008.4
20210920191043 102 180 2.0 9.0 0.00 0.00 0.00 41 1008.7
20210920190519 102 169 1.0 8.0 0.00 0.00 0.00 45 1008.8
20210920185537 101 182 2.0 6.0 0.00 0.00 0.00 44 1009.0
20210920184616 100 194 2.0 7.0 0.00 0.00 0.00 44 1009.2
20210920182512 99 173 1.0 11.0 0.00 0.00 0.00 45 1009.5
20210920130003 74 192 3.0 6.0 0.00 0.00 0.00 91 1009.6
20210920085052 76 192 1.0 3.0 0.00 0.00 0.00 86 1009.2